Flag for Uzbekistan Weather past 2 weeks in Tashkent, Uzbekistan

Now
91 °F

Passing clouds.


Feels Like: 87 °F
Forecast: 63 / 83 °F
Wind: 3 mph from North

Location: Tashkent

Current Time: Sep 23, 2014 at 1:46:34 PM

Latest Report: Sep 23, 2014 at 1:00 PM


Visibility: N/A

Pressure: 29.83 "Hg

Humidity: 12%

Dew point: 32 °F

Location of TashkentLocation

Historic Weather in Tashkent — Graph

°F

Tashkent temperature yesterday

Maximum temperature yesterday: 86 °F (at 1:30 PM)
Minimum temperature yesterday: 52 °F (at 6:00 AM)
Average temperature yesterday: 71 °F

Past Weeks' High & Low Weather Summary

 TemperatureHumidityPressure
High93 °F (Sep 17, 1:00 PM)59% (Sep 12, 5:00 AM)30.30 "Hg (Sep 12, 5:00 AM)
Low45 °F (Sep 20, 4:00 AM)7% (Sep 9, 4:00 PM)29.68 "Hg (Sep 17, 3:30 PM)
Average70 °F27%29.95 "Hg
* Reported Sep 8 12:00 Noon — Sep 23 12:30 PM, Tashkent, Weather by CustomWeather, © 2014

Note: Actual official high and low records may vary slightly from our data, if they occured in-between our weather recording intervals... More about our weather records

Advertising

Tashkent weather history for previous 24 hours

 ConditionsComfort  
Time TempWeatherWind HumidityBarometerVisibility
12:30 PM
Sep 23
90 °FPassing clouds.3 mph12%29.83 "HgN/A
12:00 PM90 °FClear.3 mph12%29.83 "Hg4 mi
11:30 AM88 °FPartly sunny.3 mph13%29.86 "Hg4 mi
11:00 AM88 °FClear.6 mph13%29.86 "Hg4 mi
10:30 AM86 °FClear.3 mph14%29.86 "Hg4 mi
10:00 AM84 °FClear.3 mph16%29.86 "Hg4 mi
9:30 AM82 °FClear.3 mph17%29.86 "Hg4 mi
9:00 AM77 °FSunny.8 mph24%29.86 "Hg10 mi
8:30 AM73 °FSunny.8 mph29%29.86 "Hg10 mi
8:00 AM70 °FSunny.6 mph33%29.86 "Hg10 mi
7:30 AM64 °FSunny.6 mph40%29.86 "Hg10 mi
7:00 AM61 °FSunny.3 mph45%29.89 "Hg10 mi
6:30 AM63 °FSunny.3 mph42%29.89 "Hg10 mi
6:00 AM64 °FClear.6 mph40%29.86 "Hg10 mi
5:30 AM63 °FClear.3 mph39%29.86 "Hg10 mi
4:30 AM64 °FClear.3 mph37%29.86 "Hg10 mi
4:00 AM64 °FClear.1 mph37%29.86 "Hg10 mi
3:30 AM64 °FClear.3 mph37%29.86 "Hg10 mi
3:00 AM64 °FClear.6 mph34%29.86 "Hg10 mi
2:30 AM68 °FClear.3 mph33%29.86 "Hg10 mi
2:00 AM66 °FPassing clouds.1 mph35%29.86 "Hg2 mi
1:30 AM66 °FPassing clouds.1 mph35%29.86 "Hg2 mi
1:00 AM70 °FPassing clouds.6 mph29%29.86 "Hg2 mi
12:30 AM68 °FPartly cloudy.8 mph33%29.89 "Hg2 mi
12:00 AM66 °FPartly cloudy.8 mph35%29.89 "Hg2 mi
11:30 PM
Sep 22
68 °FPartly cloudy.3 mph33%29.89 "Hg2 mi
11:00 PM72 °FPartly cloudy.3 mph27%29.89 "Hg2 mi
10:30 PM70 °FPartly cloudy.3 mph31%29.89 "Hg2 mi
10:00 PM70 °FPartly cloudy.3 mph31%29.92 "HgN/A
9:30 PM72 °FPartly cloudy.1 mph27%29.92 "HgN/A
9:00 PM73 °FPartly cloudy.3 mph25%29.89 "HgN/A
8:30 PM73 °FPartly cloudy.1 mph20%29.89 "HgN/A
8:00 PM73 °FPartly cloudy.1 mph20%29.89 "HgN/A
7:30 PM75 °FPartly cloudy.1 mph18%29.89 "HgN/A
7:00 PM79 °FPartly cloudy.3 mph16%29.89 "HgN/A
6:30 PM81 °FPartly cloudy.3 mph12%29.89 "HgN/A
6:00 PM82 °FPartly sunny.6 mph11%29.89 "HgN/A
5:30 PM82 °FMostly cloudy.3 mph11%29.89 "HgN/A
5:00 PM82 °FBroken clouds.6 mph11%29.89 "HgN/A
4:30 PM82 °FBroken clouds.6 mph11%29.89 "HgN/A
4:00 PM84 °FPartly sunny.8 mph10%29.89 "HgN/A
3:30 PM86 °FBroken clouds.8 mph9%29.89 "HgN/A
3:00 PM86 °FBroken clouds.8 mph9%29.89 "Hg4 mi
2:30 PM86 °FClear.8 mph9%29.89 "Hg4 mi
2:00 PM86 °FClear.6 mph8%29.89 "Hg4 mi
1:30 PM86 °FClear.6 mph8%29.92 "Hg4 mi
1:00 PM84 °FClear.6 mph10%29.92 "Hg4 mi
Weather by CustomWeather, © 2014

See weather overviewHow to use our weather pages